This is the latest recevied weather packets stored in our database for station/object K0QED. If no packets are shown the sender has not sent any weather packets the latest 1 day(s).
| Time | Temp. | Humidity | Pressure | Rain* | Wind** | Luminosity | Snow |
|---|---|---|---|---|---|---|---|
| 1778016609 | 0° C | 99% | 1012.9 hPa | 0 mm | 0 m/s | 63 W/m² | - |
| 1778016306 | 0° C | 99% | 1013.2 hPa | 0 mm | 0.89 m/s, 1° | 54 W/m² | - |
| 1778016003 | 0.56° C | 99% | 1013.1 hPa | 1.78 mm | 0 m/s | 49 W/m² | - |
| 1778015700 | 0.56° C | 99% | 1013.4 hPa | 1.78 mm | 0.45 m/s, 166° | 53 W/m² | - |
| 1778015396 | 0.56° C | 99% | 1013.5 hPa | 0 mm | 0 m/s | 50 W/m² | - |
| 1778015093 | 0.56° C | 99% | 1013 hPa | 0 mm | 0 m/s | 62 W/m² | - |
| 1778014790 | 0.56° C | 99% | 1013.4 hPa | 0 mm | 0 m/s | 70 W/m² | - |
| 1778014489 | 0.56° C | 99% | 1013.4 hPa | 0 mm | 0 m/s | 62 W/m² | - |
| 1778014185 | 0.56° C | 99% | 1013.5 hPa | 0 mm | 0 m/s | 75 W/m² | - |
| 1778013883 | 0.56° C | 99% | 1013.4 hPa | 0 mm | 0 m/s | 75 W/m² | - |
| 1778013580 | 0.56° C | 99% | 1013.5 hPa | 0 mm | 0.89 m/s, 249° | 65 W/m² | - |
| 1778013277 | 0.56° C | 99% | 1013 hPa | 0 mm | 0.45 m/s, 109° | 86 W/m² | - |
| 1778012973 | 0.56° C | 99% | 1013.2 hPa | 0 mm | 0 m/s | 103 W/m² | - |
| 1778012669 | 0.56° C | 99% | 1013.5 hPa | 0 mm | 0.45 m/s, 172° | 94 W/m² | - |
| 1778012366 | 0.56° C | 99% | 1013.5 hPa | 0 mm | 0.89 m/s, 166° | 113 W/m² | - |
| 1778012063 | 0.56° C | 99% | 1013.7 hPa | 0 mm | 0 m/s | 93 W/m² | - |
| 1778011761 | 0.56° C | 99% | 1013.7 hPa | 0 mm | 0 m/s | 85 W/m² | - |
| 1778011458 | 0.56° C | 99% | 1013.7 hPa | 0 mm | 0 m/s | 95 W/m² | - |
| 1778011153 | 0.56° C | 99% | 1013.6 hPa | 0 mm | 0.45 m/s, 159° | 101 W/m² | - |
| 1778010851 | 0.56° C | 99% | 1013.9 hPa | 0 mm | 0.89 m/s, 60° | 99 W/m² | - |
| 1778010548 | 0.56° C | 99% | 1014 hPa | 1.78 mm | 0.89 m/s, 146° | 88 W/m² | - |
| 1778010246 | 0.56° C | 99% | 1014.1 hPa | 1.78 mm | 0 m/s | 92 W/m² | - |
| 1778009946 | 0.56° C | 99% | 1013.9 hPa | 0 mm | 1.34 m/s, 295° | 118 W/m² | - |
| 1778009644 | 0.56° C | 99% | 1014.1 hPa | 0 mm | 0 m/s | 102 W/m² | - |
| 1778009341 | 0.56° C | 99% | 1013.9 hPa | 0 mm | 0.89 m/s, 173° | 109 W/m² | - |
* Rain latest hour (hover to see other rain measurements)
** Current wind speed in m/s (hover to see current wind gust speed)